Regional Weather Roundup
Issued by NWS

Home | Current Version | Previous Version | Graphics & Text | Print | Product List | Glossary Off
Versions: 1 2 3 4 5 6 7 8 9 10 11 12 13 14 15 16 17 18 19 20 21 22 23 24 25 26 27 28 29 30 31 32 33 34 35 36 37 38 39 40 41 42 43 44 45 46 47 48 49 50

000
ASUS43 KMKX 240800
RWRWI

WISCONSIN REGIONAL WEATHER ROUNDUP
NATIONAL WEATHER SERVICE MILWAUKEE/SULLIVAN WI
300 AM CDT SUN JUL 24 2016

NOTE: "FAIR" INDICATES FEW OR NO CLOUDS BELOW 12,000 FEET WITH NO
SIGNIFICANT WEATHER AND/OR OBSTRUCTIONS TO VISIBILITY.

WIZ001-002-006>008-014>016-023>028-240900-
NORTHWEST WISCONSIN

CITY           SKY/WX    TMP DP  RH WIND       PRES   REMARKS
SUPERIOR ARPT  LGT RAIN  61  61 100 SE9       29.76F
ASHLAND        CLOUDY    70  67  90 SW6       29.79S
HAYWARD        CLOUDY    70  67  90 S3        29.81R
SIREN          CLOUDY    72  70  94 S8        29.78S
CUMBERLAND     CLOUDY    68  66  94 SE7       29.80F FOG
RICE LAKE      CLOUDY    69  67  93 CALM      29.83R
CHETEK         CLOUDY    69  69  99 MISG      29.82R
LADYSMITH      CLOUDY    69  68  94 SE3       29.84S
EAU CLAIRE     NOT AVBL
MENOMONIE      CLOUDY    70  70  99 E3        29.79S
NEW RICHMOND   CLOUDY    72  71  95 S6        29.79R
OSCEOLA        CLOUDY    73  73 100 SE5       29.79S
$$

WIZ003>005-009-010-017-018-240900-
NORTH CENTRAL WISCONSIN

CITY           SKY/WX    TMP DP  RH WIND       PRES   REMARKS
MANITOWISH WTR CLOUDY    68  68 100 S3        29.83F
ARBOR VITAE    CLOUDY    72  70  95 S6        29.84F
WOODRUFF       CLOUDY    72  70  95 S6        29.84F
RHINELANDER    MOCLDY    70  68  93 S5        29.86F
EAGLE RIVER    CLOUDY    68  68 100 S3        29.85F
LAND O LAKES   CLOUDY    69  68  98 CALM      29.87S
PHILLIPS       CLOUDY    68  67  99 CALM      29.84R
TOMAHAWK       CLOUDY    67  66  96 CALM      29.85S FOG
MEDFORD        CLOUDY    67  67 100 CALM      29.83F FOG
MERRILL        CLOUDY    69  69 100 CALM      29.85S
$$

WIZ029-030-035-036-043>047-240900-
CENTRAL WISCONSIN

CITY           SKY/WX    TMP DP  RH WIND       PRES   REMARKS
WAUSAU         CLOUDY    70  68  93 S8        29.82F
MOSINEE        CLOUDY    68  68 100 SE6       29.86F
MARSHFIELD     CLOUDY    71  68  90 S7        29.83F
STEVENS POINT  LGT RAIN  69  68  99 S5        29.85F
WAUPACA        LGT RAIN  73  73  99 SE3       29.86F
WAUTOMA        CLOUDY    71  70  96 NE3       29.86R
WISC RAPIDS    CLOUDY    71  68  90 S5        29.85F
CAMP DOUGLAS   NOT AVBL
$$

WIZ011>013-019>022-031-037>040-048>050-240900-
NORTHEAST WISCONSIN

CITY           SKY/WX    TMP DP  RH WIND       PRES   REMARKS
ANTIGO         CLOUDY    68  68 100 S3        29.86F
SHAWANO        CLOUDY    73  70  91 S5        29.85F
OCONTO         CLOUDY    73  73 100 SW7       29.85S
STURGEON BAY   LGT RAIN  72  68  87 S9        29.87S
GREEN BAY      RAIN      71  71 100 S9        29.86F
MANITOWOC      NOT AVBL
APPLETON       CLOUDY    70  70 100 SE7       29.84F
CLINTONVILLE   LGT RAIN  70  68  94 S10       29.84F
OSHKOSH        TSTM      72  69  90 SE13      29.84F
$$

WIZ032>034-041-042-053>061-240900-
SOUTHWEST WISCONSIN

CITY           SKY/WX    TMP DP  RH WIND       PRES   REMARKS
LA CROSSE      PTCLDY    75  72  90 S8        29.79F
SPARTA         CLOUDY    71  69  94 CALM      29.83F
VIROQUA        CLOUDY    73  73 100 S7        29.84F
BOSCOBEL       CLOUDY    75  72  90 CALM      29.83F
PRAIRIE DU CHI CLOUDY    75  73  92 CALM      29.82F
PLATTEVILLE    CLEAR     73  73 100 S10       29.87F
$$

WIZ056-057-062-063-064-067-068-240900-
SOUTH CENTRAL WISCONSIN

CITY           SKY/WX    TMP DP  RH WIND       PRES   REMARKS
REEDSBURG      MOCLDY    71  71  99 S5        29.85S
BARABOO/DELLS  PTCLDY    71  68  91 S8        29.86F
LONE ROCK      NOT AVBL
MINERAL POINT  CLEAR     72  72 100 SE10      29.88S
MADISON        PTCLDY    71  69  93 S10       29.86F
MIDDLETON      PTCLDY    73  71  94 S5        29.88S
WATERTOWN      MOCLDY    70  70 100 S7        29.87F
MONROE         PTCLDY    70  70 100 S13       29.89F
JANESVILLE     PTCLDY    70  70 100 S8        29.89S
$$

WIZ051-052-058>065-066-070>072-240900-
SOUTHEAST WISCONSIN

CITY           SKY/WX    TMP DP  RH WIND       PRES   REMARKS
MILWAUKEE      CLOUDY    74  69  85 S10       29.88F
WAUKESHA       MOCLDY    68  68 100 S8        29.91F
MILWAUKEE/TIMM CLOUDY    70  64  83 S6        29.90F
RACINE         CLOUDY    73  69  87 S8        29.91F
BURLINGTON     CLOUDY    70  69  96 S3        29.91F
KENOSHA        CLOUDY    72  69  90 S8        29.91F
FOND DU LAC    TSTM      73  69  87 S10       29.84F
SHEBOYGAN      LGT RAIN  72  69  90 S9        29.86F
WEST BEND      CLOUDY    70  68  94 S7        29.88F
JUNEAU         TSTM      70  68  95 SE12      29.87F
$$

LSZ147-162-240900-
LAKE SUPERIOR

STATION/POSITION TIME  TEMP    WIND        PRES    WAVE
                       AIR SEA DIR/SP/G            HT/PER
                 (UTC) (F)     (DEG/KT/KT) (MB)    (FT/S)
W MID LAKE BUOY  0650   62 57  170/  4/  6 1008.0F   1/ 4
DEVILS ISLAND    0700   65     110/  2/  3 1007.9F
PORT WING        0700   62     350/  2/  4 1008.5
SAXON HARBOR     0700   73     190/  4/ 11 1008.1F
$$

LMZ867-665-643>646-240900-
LAKE MICHIGAN

STATION/POSITION TIME  TEMP    WIND        PRES    WAVE
                       AIR SEA DIR/SP/G            HT/PER
                 (UTC) (F)     (DEG/KT/KT) (MB)    (FT/S)
CHAMBERS ISLAND  0700   72     130/  3/  5 1011.2F
S GREEN BAY BUOY 0730   75 75  190/ 10/ 12   N/A
N MID LAKE BUOY  0650   71 69   CALM  /  2 1011.0F   0
NORTHPORT PIER   0700   72     180/  2/  5 1011.9S
KEWAUNEE LAKESHO 0700   59     170/ 10/ 10 1010.9F
SHEBOYGAN LAKESH 0700   73     200/ 19/ 22 1011.2F
PORT WASHINGTON  0720   67     160/ 11/ 17 1012.9F
MILWAUKEE LAKESH 0710   68     170/  6/  7   N/A
S MID LAKE BUOY  0650   72 72  180/ 12/ 16 1012.8F   1/ 3
KENOSHA   LAKESH 0700   70     190/ 11/ 18 1012.9F
$$

TC  - TEMPERATURE IN CELSIUS
VSB - VISIBILITY IN STATUTE MILES
WCI - WIND CHILL INDEX
HX  - HEAT INDEX





USA.gov is the U.S. government's official web portal to all federal, state and local government web resources and services.